| time (UTC) | temp C | wind direction | speed KPH | gust KPH | rain 1hr cm | rain 24hr cm | rain mn cm | humidity % | barometer mb |
| 20260504081024 | 15 | 307 | 3.2 | 6.4 | 0.00 | 2.69 | 0.25 | 65 | 1013.7 |
| 20260504045016 | 20 | 304 | 8.0 | 17.7 | 0.00 | 2.82 | 0.25 | 48 | 1012.6 |
| 20260504044034 | 20 | 282 | 12.9 | 22.5 | 0.00 | 2.82 | 0.25 | 47 | 1012.6 |
| 20260504043031 | 20 | 302 | 8.0 | 12.9 | 0.00 | 2.82 | 0.25 | 48 | 1012.7 |
| 20260504042049 | 20 | 315 | 9.7 | 22.5 | 0.00 | 2.82 | 0.25 | 48 | 1012.5 |
| 20260504041026 | 20 | 304 | 9.7 | 20.9 | 0.00 | 2.82 | 0.25 | 49 | 1012.5 |
| 20260504040024 | 20 | 257 | 8.0 | 14.5 | 0.00 | 2.82 | 0.25 | 50 | 1012.5 |
| 20260504035022 | 19 | 313 | 11.3 | 20.9 | 0.00 | 2.82 | 0.25 | 50 | 1012.6 |
| 20260504034020 | 20 | 290 | 9.7 | 19.3 | 0.00 | 2.82 | 0.25 | 51 | 1012.6 |
| 20260504033017 | 20 | 305 | 8.0 | 14.5 | 0.00 | 2.82 | 0.25 | 53 | 1012.8 |
| 20260504032035 | 19 | 309 | 9.7 | 20.9 | 0.00 | 2.82 | 0.25 | 53 | 1012.7 |
| 20260504031032 | 19 | 315 | 8.0 | 12.9 | 0.00 | 2.82 | 0.25 | 52 | 1013.0 |
| 20260504030110 | 19 | 286 | 9.7 | 17.7 | 0.00 | 2.82 | 0.25 | 51 | 1013.0 |
| 20260504025028 | 18 | 287 | 6.4 | 12.9 | 0.00 | 2.82 | 0.25 | 52 | 1013.2 |
| 20260504024025 | 18 | 311 | 9.7 | 20.9 | 0.00 | 2.82 | 0.25 | 54 | 1013.3 |
| 20260504023022 | 18 | 306 | 8.0 | 14.5 | 0.00 | 2.82 | 0.25 | 56 | 1013.4 |
| 20260504022040 | 18 | 329 | 11.3 | 22.5 | 0.00 | 2.82 | 0.25 | 61 | 1013.7 |
| 20260504021038 | 18 | 319 | 6.4 | 16.1 | 0.00 | 2.82 | 0.25 | 61 | 1013.8 |
| 20260504020056 | 18 | 288 | 6.4 | 14.5 | 0.00 | 2.82 | 0.25 | 64 | 1013.9 |
| 20260504015033 | 18 | 307 | 8.0 | 14.5 | 0.00 | 2.82 | 0.25 | 64 | 1013.9 |
| 20260504014051 | 17 | 294 | 6.4 | 11.3 | 0.00 | 2.82 | 0.25 | 66 | 1014.1 |
| 20260504013028 | 17 | 290 | 8.0 | 16.1 | 0.00 | 2.82 | 0.25 | 70 | 1014.2 |
| 20260504012026 | 17 | 302 | 6.4 | 11.3 | 0.00 | 2.82 | 0.25 | 71 | 1014.2 |
| 20260504011024 | 17 | 316 | 6.4 | 12.9 | 0.00 | 2.82 | 0.25 | 74 | 1014.4 |
| 20260504010021 | 17 | 309 | 4.8 | 11.3 | 0.00 | 2.82 | 0.25 | 78 | 1014.3 |
| 20260504005019 | 16 | 316 | 8.0 | 16.1 | 0.00 | 2.82 | 0.25 | 80 | 1014.5 |
| 20260504004016 | 16 | 286 | 6.4 | 12.9 | 0.00 | 2.82 | 0.25 | 83 | 1014.5 |
| 20260504003034 | 16 | 282 | 6.4 | 12.9 | 0.00 | 2.82 | 0.25 | 84 | 1014.6 |
| 20260504002032 | 16 | 302 | 6.4 | 11.3 | 0.00 | 2.82 | 0.25 | 85 | 1014.5 |
| 20260504001029 | 15 | 317 | 6.4 | 9.7 | 0.00 | 2.82 | 0.25 | 86 | 1014.5 |
| 20260504000027 | 15 | 334 | 6.4 | 12.9 | 0.00 | 2.82 | 0.25 | 88 | 1014.5 |
| 20260503235025 | 15 | 306 | 3.2 | 6.4 | 0.00 | 2.82 | 0.25 | 92 | 1014.5 |
| 20260503234022 | 14 | 0 | 3.2 | 6.4 | 0.00 | 2.82 | 0.25 | 97 | 1014.5 |
| 20260503233020 | 13 | 344 | 6.4 | 9.7 | 0.03 | 2.82 | 0.25 | 98 | 1014.5 |
| 20260503232017 | 13 | 342 | 4.8 | 8.0 | 0.03 | 2.84 | 0.25 | 98 | 1014.6 |
| 20260503231035 | 13 | 359 | 6.4 | 11.3 | 0.00 | 2.87 | 0.25 | 99 | 1014.7 |
| 20260503230032 | 13 | 2 | 4.8 | 8.0 | 0.00 | 2.87 | 0.25 | 99 | 1014.7 |
| 20260503225030 | 13 | 357 | 4.8 | 9.7 | 0.00 | 2.87 | 0.25 | 99 | 1014.6 |
| 20260503224028 | 12 | 347 | 4.8 | 8.0 | 0.00 | 2.87 | 0.25 | 99 | 1014.5 |
| 20260503223025 | 12 | 352 | 3.2 | 6.4 | 0.00 | 2.84 | 0.23 | 99 | 1014.5 |
| 20260503222043 | 12 | 21 | 3.2 | 4.8 | 0.00 | 2.87 | 0.23 | 99 | 1014.5 |
| 20260503221020 | 12 | 34 | 3.2 | 4.8 | 0.00 | 2.87 | 0.23 | 99 | 1014.5 |
| 20260503220018 | 12 | 55 | 3.2 | 4.8 | 0.00 | 2.87 | 0.23 | 99 | 1014.4 |
| 20260503215035 | 11 | 63 | 3.2 | 4.8 | 0.00 | 2.87 | 0.23 | 99 | 1014.5 |
| 20260503214034 | 11 | 76 | 3.2 | 4.8 | 0.00 | 2.87 | 0.23 | 98 | 1014.4 |
| 20260503213031 | 11 | 47 | 3.2 | 3.2 | 0.00 | 2.87 | 0.23 | 98 | 1014.2 |
| 20260503212028 | 11 | 51 | 1.6 | 4.8 | 0.00 | 2.87 | 0.23 | 98 | 1014.2 |
| 20260503211026 | 11 | 48 | 1.6 | 3.2 | 0.00 | 2.87 | 0.23 | 98 | 1014.0 |
| 20260503210024 | 11 | 37 | 1.6 | 4.8 | 0.00 | 2.87 | 0.23 | 98 | 1014.0 |
| 20260503205021 | 11 | 47 | 3.2 | 6.4 | 0.00 | 2.87 | 0.23 | 98 | 1013.7 |
| 20260503204019 | 11 | 70 | 3.2 | 4.8 | 0.00 | 2.87 | 0.23 | 98 | 1013.6 |
| 20260503203017 | 11 | 70 | 3.2 | 4.8 | 0.00 | 2.87 | 0.23 | 98 | 1013.6 |
| 20260503202034 | 11 | 58 | 3.2 | 4.8 | 0.00 | 2.87 | 0.23 | 98 | 1013.7 |
| 20260503201032 | 11 | 53 | 1.6 | 4.8 | 0.00 | 2.87 | 0.23 | 98 | 1013.6 |
| 20260503200030 | 11 | 51 | 3.2 | 4.8 | 0.00 | 2.87 | 0.23 | 98 | 1013.5 |
| 20260503195027 | 11 | 45 | 3.2 | 4.8 | 0.00 | 2.87 | 0.23 | 98 | 1013.2 |
| 20260503194025 | 11 | 53 | 3.2 | 4.8 | 0.00 | 2.87 | 0.23 | 98 | 1013.3 |
| 20260503193022 | 11 | 51 | 3.2 | 4.8 | 0.00 | 2.87 | 0.23 | 98 | 1013.4 |
| 20260503192020 | 11 | 55 | 3.2 | 4.8 | 0.00 | 2.87 | 0.23 | 98 | 1013.2 |
| 20260503191017 | 11 | 54 | 3.2 | 4.8 | 0.00 | 2.87 | 0.23 | 98 | 1013.0 |
| 20260503190035 | 11 | 42 | 1.6 | 4.8 | 0.00 | 2.87 | 0.23 | 98 | 1013.0 |
| 20260503185033 | 12 | 61 | 4.8 | 6.4 | 0.00 | 2.87 | 0.23 | 98 | 1013.0 |
| 20260503184051 | 12 | 35 | 4.8 | 9.7 | 0.00 | 2.87 | 0.23 | 98 | 1013.1 |
| 20260503183028 | 12 | 40 | 3.2 | 6.4 | 0.00 | 2.87 | 0.23 | 98 | 1013.3 |
| 20260503182025 | 12 | 10 | 1.6 | 4.8 | 0.00 | 2.87 | 0.23 | 98 | 1013.3 |
| 20260503181023 | 12 | 44 | 1.6 | 3.2 | 0.05 | 2.87 | 0.23 | 98 | 1013.0 |
| 20260503180021 | 12 | 81 | 3.2 | 4.8 | 0.13 | 2.87 | 0.23 | 98 | 1012.8 |
| 20260503175018 | 12 | 47 | 3.2 | 4.8 | 0.13 | 2.87 | 0.23 | 98 | 1013.0 |
| 20260503174016 | 12 | 82 | 3.2 | 4.8 | 0.13 | 2.87 | 0.23 | 98 | 1013.0 |
| 20260503173033 | 12 | 53 | 1.6 | 3.2 | 0.15 | 2.87 | 0.23 | 98 | 1013.2 |
| 20260503172031 | 12 | 45 | 3.2 | 4.8 | 0.13 | 2.87 | 0.23 | 98 | 1013.2 |
| 20260503171029 | 12 | 353 | 3.2 | 6.4 | 0.10 | 2.82 | 0.18 | 98 | 1013.5 |
| 20260503131031 | 14 | 205 | 4.8 | 12.9 | 0.15 | 2.62 | 2.62 | 97 | 1013.5 |